Location: Melara
(45.0500°N, 11.1833°E)
Time: 09:50:12
(UTC+00:00)

UKube-1 - Pass Details

Date: 05 June 2024
Orbit: 582 x 590 km, 98.3° (Epoch: 16 June)

Event Time Altitude Azimuth Distance (km) Brightness Sun altitude
Rises 23:17:31 0° 33° (NNE) 2,813 ? -22.3°
Reaches altitude 10° 23:20:37 10° 58° (ENE) 1,907 ? -22.3°
Maximum altitude 23:22:51 14° 91° (E) 1,648 ? -22.2°
Enters shadow 23:23:23 14° 100° (E) 1,663 ? -22.2°
